Terminal Aerodrome Forecast
Issued by NWS Mt. Holly, NJ

Home | Current Version | Previous Version | Text Only | Print | Product List | Glossary On
Versions: 1 2 3 4 5 6 7 8 9 10 11 12 13 14 15 16 17 18 19 20 21 22 23 24 25 26 27 28 29 30 31 32 33 34 35 36 37 38 39 40 41 42 43 44 45 46 47 48 49 50
000
FTAK31 PANC 241503 AAB
TAFABE
TAF AMD
PABE 241503Z 2415/2512 22005KT 6SM BR OVC004
      TEMPO 2415/2418 1/4SM FG VV002
     FM242000 32008KT P6SM SCT005 OVC015
     FM250000 34014KT P6SM SCT015 BKN040
     FM250600 35009KT P6SM SCT045=

USA.gov is the U.S. government's official web portal to all federal, state and local government web resources and services.